NPT44 LFRC-EGTE

Flight info

Callsign NPT44
Flight time 0h 33m
Altitude 12000
Route DCT ORTAC DCT SKERY DCT BHD DCT
Aircraft CRJ7/M-V/N

Departure

Time 2026-05-05 15:53
Airport Cherbourg Manche airport (LFRC)

Arrival

Time 2026-05-05 16:26
Airport Exeter International Airport (EGTE)
Time Latitude Longitude Altitude Speed Heading
2026-05-05 15:50 49.64819 -1.45437 466 ft 0 kts 281°
2026-05-05 15:51 49.64819 -1.45438 466 ft 0 kts 281°
2026-05-05 15:52 49.64820 -1.45442 466 ft 4 kts 281°
2026-05-05 15:52 49.64864 -1.45798 467 ft 72 kts 281°
2026-05-05 15:52 49.65010 -1.46985 467 ft 150 kts 281°
2026-05-05 15:52 49.65230 -1.48760 805 ft 175 kts 281°
2026-05-05 15:53 49.65387 -1.50018 1125 ft 185 kts 281°
2026-05-05 15:53 49.65886 -1.52050 1603 ft 202 kts 308°
2026-05-05 15:53 49.67051 -1.53358 2117 ft 216 kts 331°
2026-05-05 15:53 49.68476 -1.54460 2584 ft 238 kts 333°
2026-05-05 15:54 49.69973 -1.55746 3051 ft 251 kts 329°
2026-05-05 15:54 49.71444 -1.57258 3510 ft 257 kts 324°
2026-05-05 15:54 49.72874 -1.58948 3968 ft 261 kts 321°
2026-05-05 15:54 49.74273 -1.60769 4425 ft 263 kts 319°
2026-05-05 15:55 49.75633 -1.62656 4878 ft 263 kts 317°
2026-05-05 15:55 49.76971 -1.64593 5331 ft 263 kts 316°
2026-05-05 15:55 49.78290 -1.66557 5783 ft 263 kts 314°
2026-05-05 15:55 49.79595 -1.68536 6233 ft 263 kts 313°
2026-05-05 15:56 49.80901 -1.70541 6685 ft 263 kts 312°
2026-05-05 15:56 49.82189 -1.72539 7133 ft 264 kts 312°
2026-05-05 15:56 49.83507 -1.74595 7591 ft 265 kts 311°
2026-05-05 15:56 49.84809 -1.76637 8042 ft 267 kts 311°
2026-05-05 15:57 49.86120 -1.78697 8495 ft 268 kts 311°
2026-05-05 15:57 49.87436 -1.80767 8947 ft 270 kts 311°
2026-05-05 15:57 49.88757 -1.82847 9398 ft 272 kts 311°
2026-05-05 15:57 49.90088 -1.84945 9849 ft 273 kts 311°
2026-05-05 15:58 49.91426 -1.87056 10300 ft 275 kts 311°
2026-05-05 15:58 49.92787 -1.89206 10757 ft 277 kts 311°
2026-05-05 15:58 49.94142 -1.91347 11209 ft 279 kts 311°
2026-05-05 15:58 49.95508 -1.93508 11661 ft 281 kts 311°
2026-05-05 15:59 49.96896 -1.95708 11894 ft 289 kts 311°
2026-05-05 15:59 49.98328 -1.97978 11975 ft 289 kts 311°
2026-05-05 15:59 49.99792 -2.00299 11994 ft 289 kts 311°
2026-05-05 15:59 50.01101 -2.02732 11984 ft 285 kts 297°
2026-05-05 16:00 50.01573 -2.05740 12015 ft 283 kts 273°
2026-05-05 16:00 50.01580 -2.06736 12014 ft 284 kts 269°
2026-05-05 16:00 50.01343 -2.10635 12004 ft 284 kts 263°
2026-05-05 16:00 50.01069 -2.13673 12001 ft 283 kts 263°
2026-05-05 16:01 50.00815 -2.16715 12000 ft 283 kts 263°
2026-05-05 16:01 50.00604 -2.19804 12000 ft 282 kts 265°
2026-05-05 16:01 50.00446 -2.22840 12000 ft 282 kts 266°
2026-05-05 16:01 50.00331 -2.25866 12000 ft 282 kts 267°
2026-05-05 16:02 50.00248 -2.28963 12000 ft 282 kts 268°
2026-05-05 16:02 50.00208 -2.31024 12000 ft 282 kts 268°
2026-05-05 16:02 50.00165 -2.34070 12000 ft 282 kts 269°
2026-05-05 16:02 50.00137 -2.37116 12000 ft 282 kts 269°
2026-05-05 16:03 50.00120 -2.40167 12000 ft 282 kts 269°
2026-05-05 16:03 50.00109 -2.43214 12000 ft 282 kts 270°
2026-05-05 16:03 50.00104 -2.46264 12000 ft 282 kts 270°
2026-05-05 16:03 50.00101 -2.49345 12000 ft 282 kts 270°
2026-05-05 16:04 50.00100 -2.52368 12000 ft 282 kts 270°
2026-05-05 16:04 50.00101 -2.55457 11995 ft 272 kts 270°
2026-05-05 16:04 50.00101 -2.58356 11792 ft 270 kts 270°
2026-05-05 16:04 50.00102 -2.61326 11411 ft 270 kts 270°
2026-05-05 16:05 50.00102 -2.64205 11035 ft 267 kts 270°
2026-05-05 16:05 50.00102 -2.67371 10616 ft 263 kts 270°
2026-05-05 16:05 50.00102 -2.69461 10336 ft 261 kts 270°
2026-05-05 16:05 50.00102 -2.72039 9988 ft 258 kts 270°
2026-05-05 16:06 50.00100 -2.74935 9593 ft 256 kts 270°
2026-05-05 16:06 50.00099 -2.77720 9210 ft 254 kts 270°
2026-05-05 16:06 50.00139 -2.80042 8890 ft 252 kts 271°
2026-05-05 16:06 50.00191 -2.82844 8499 ft 251 kts 271°
2026-05-05 16:07 50.00241 -2.85643 8164 ft 247 kts 271°
2026-05-05 16:07 50.00291 -2.88462 8046 ft 240 kts 271°
2026-05-05 16:07 50.00337 -2.91155 7683 ft 247 kts 271°
2026-05-05 16:07 50.00384 -2.93834 7266 ft 249 kts 271°
2026-05-05 16:08 50.00431 -2.96587 6831 ft 249 kts 271°
2026-05-05 16:08 50.00478 -2.99421 6379 ft 248 kts 271°
2026-05-05 16:08 50.00514 -3.02007 6126 ft 241 kts 271°
2026-05-05 16:08 50.00664 -3.04588 6001 ft 234 kts 287°
2026-05-05 16:09 50.01603 -3.06650 6027 ft 233 kts 315°
2026-05-05 16:09 50.02468 -3.07736 6014 ft 237 kts 321°
2026-05-05 16:09 50.03889 -3.09223 6006 ft 241 kts 325°
2026-05-05 16:09 50.05319 -3.10608 6003 ft 243 kts 326°
2026-05-05 16:10 50.06839 -3.12048 6001 ft 245 kts 326°
2026-05-05 16:10 50.08211 -3.13340 6001 ft 245 kts 326°
2026-05-05 16:10 50.09677 -3.14719 6000 ft 245 kts 326°
2026-05-05 16:10 50.11136 -3.16093 6000 ft 245 kts 326°
2026-05-05 16:11 50.12601 -3.17472 6000 ft 246 kts 326°
2026-05-05 16:11 50.16998 -3.21616 6000 ft 246 kts 326°
2026-05-05 16:12 50.18483 -3.23017 6000 ft 245 kts 326°
2026-05-05 16:12 50.21409 -3.25781 6000 ft 245 kts 326°
2026-05-05 16:13 50.25805 -3.29940 6000 ft 245 kts 326°
2026-05-05 16:13 50.26767 -3.30851 6000 ft 245 kts 326°
2026-05-05 16:13 50.27563 -3.31605 6000 ft 245 kts 326°
2026-05-05 16:14 50.30504 -3.34394 6000 ft 245 kts 326°
2026-05-05 16:14 50.33461 -3.37202 6000 ft 245 kts 326°
2026-05-05 16:15 50.35965 -3.39582 6000 ft 245 kts 326°
2026-05-05 16:15 50.38969 -3.42454 5532 ft 254 kts 327°
2026-05-05 16:16 50.42002 -3.45470 4850 ft 255 kts 327°
2026-05-05 16:16 50.45014 -3.48589 4067 ft 255 kts 326°
2026-05-05 16:17 50.47880 -3.51623 3358 ft 252 kts 326°
2026-05-05 16:17 50.49222 -3.53045 3143 ft 246 kts 326°
2026-05-05 16:18 50.52007 -3.55985 2889 ft 233 kts 326°
2026-05-05 16:18 50.53337 -3.57390 2758 ft 226 kts 326°
2026-05-05 16:18 50.55895 -3.60093 2519 ft 213 kts 326°
2026-05-05 16:19 50.57085 -3.61351 2528 ft 198 kts 326°
2026-05-05 16:19 50.58220 -3.62552 2500 ft 194 kts 326°
2026-05-05 16:19 50.60522 -3.64990 2505 ft 200 kts 326°
2026-05-05 16:20 50.62873 -3.67482 2502 ft 203 kts 326°
2026-05-05 16:20 50.65230 -3.69647 2457 ft 185 kts 351°
2026-05-05 16:21 50.67271 -3.67855 2521 ft 176 kts 43°
2026-05-05 16:22 50.69438 -3.63731 2501 ft 163 kts 79°
2026-05-05 16:22 50.70021 -3.60198 2425 ft 170 kts 72°
2026-05-05 16:23 50.70766 -3.56565 1616 ft 169 kts 72°
2026-05-05 16:23 50.71119 -3.54845 1509 ft 157 kts 72°
2026-05-05 16:23 50.71791 -3.51557 1219 ft 161 kts 72°
2026-05-05 16:24 50.72112 -3.49837 1007 ft 163 kts 75°
2026-05-05 16:24 50.72383 -3.48092 764 ft 165 kts 77°
2026-05-05 16:24 50.72926 -3.44576 376 ft 164 kts 75°
2026-05-05 16:25 50.73020 -3.43987 296 ft 164 kts 76°
2026-05-05 16:25 50.73250 -3.42547 110 ft 154 kts 76°
2026-05-05 16:25 50.73445 -3.41281 108 ft 77 kts 76°
2026-05-05 16:26 50.73558 -3.40552 107 ft 21 kts 76°
2026-05-05 16:26 50.73619 -3.40213 107 ft 8 kts 38°
2026-05-05 16:27 50.73690 -3.40267 107 ft 12 kts 294°
2026-05-05 16:27 50.73689 -3.40375 107 ft 8 kts 257°
2026-05-05 16:27 50.73680 -3.40444 107 ft 5 kts 257°
2026-05-05 16:27 50.73677 -3.40459 107 ft 4 kts 257°
2026-05-05 16:28 50.73676 -3.40469 107 ft 3 kts 257°
2026-05-05 16:28 50.73675 -3.40475 107 ft 2 kts 257°
2026-05-05 16:28 50.73675 -3.40479 107 ft 0 kts 257°
2026-05-05 16:28 50.73675 -3.40480 107 ft 0 kts 257°
2026-05-05 16:30 50.73674 -3.40481 107 ft 0 kts 257°
2026-05-05 16:31 50.73674 -3.40482 107 ft 0 kts 257°
2026-05-05 16:32 50.73674 -3.40483 107 ft 0 kts 257°
2026-05-05 16:33 50.73674 -3.40484 107 ft 0 kts 257°
2026-05-05 16:35 50.73674 -3.40485 107 ft 0 kts 257°
2026-05-05 16:35 50.73648 -3.40660 107 ft 25 kts 256°
2026-05-05 16:35 50.73613 -3.40902 107 ft 21 kts 257°
2026-05-05 16:35 50.73584 -3.41092 107 ft 10 kts 242°
2026-05-05 16:36 50.73540 -3.41111 107 ft 2 kts 168°
2026-05-05 16:36 50.73537 -3.41109 107 ft 0 kts 168°
2026-05-05 16:36 50.73536 -3.41109 107 ft 0 kts 168°
2026-05-05 16:38 50.73535 -3.41109 107 ft 0 kts 168°
2026-05-05 16:40 50.73534 -3.41109 107 ft 0 kts 168°
2026-05-05 16:41 50.73534 -3.41108 107 ft 0 kts 168°
2026-05-05 16:42 50.73533 -3.41108 107 ft 0 kts 168°
2026-05-05 16:44 50.73532 -3.41108 107 ft 0 kts 168°
2026-05-05 16:46 50.73531 -3.41108 107 ft 0 kts 168°
2026-05-05 16:47 50.73531 -3.41107 107 ft 0 kts 168°
2026-05-05 16:48 50.73530 -3.41107 107 ft 0 kts 168°
2026-05-05 16:50 50.73529 -3.41107 107 ft 0 kts 168°
2026-05-05 16:52 50.73528 -3.41107 107 ft 0 kts 168°
2026-05-05 16:54 50.73528 -3.41106 107 ft 0 kts 168°
2026-05-05 16:54 50.73527 -3.41106 107 ft 0 kts 168°